QPF
0.00 0.00 0.00 0.00 0.00 0.00 0.00 0.00 0.00 0.00 0.00 0.00 0.00 0.00 0.00 0.00 0.00 0.00 0.00 0.00 0.00 0.00 0.00 0.02 0.02 0.03 0.08 0.07 0.07 0.04 0.00 0.00 0.00 0.00 0.00 0.00 0.00 0.00 0.00 0.00 0.00 0.00 0.00 0.00 0.00
0.00 0.00 0.00 0.00 0.00 0.00 0.00 0.00 0.00 0.00 0.00 0.00 0.00 0.00 0.00 0.00 0.00 0.00 0.00 0.00 0.00 0.00 0.00 0.00 0.00 0.01 0.03 0.05 0.03 0.02 0.01 0.01 0.00 0.00 0.00 0.00 0.00 0.00 0.00 0.00 0.00 0.00 0.00 0.00 0.00
0.00 0.00 0.00 0.00 0.00 0.00 0.00 0.00 0.00 0.00 0.00 0.00 0.00 0.00 0.00 0.00 0.00 0.00 0.00 0.00 0.00 0.01 0.02 0.03 0.02 0.00 0.00 0.02 0.02 0.00 0.00 0.01 0.01 0.00 0.00 0.00 0.00 0.00 0.00 0.00 0.00 0.00 0.00 0.00 0.00
0.00 0.00 0.00 0.00 0.00 0.00 0.00 0.00 0.00 0.00 0.00 0.00 0.00 0.00 0.00 0.00 0.00 0.00 0.00 0.00 0.00 0.02 0.10 0.08 0.06 0.01 0.00 0.00 0.00 0.00 0.00 0.00 0.00 0.00 0.00 0.00 0.00 0.00 0.00 0.00 0.00 0.00 0.00 0.00 0.00
0.00 0.00 0.00 0.00 0.00 0.00 0.00 0.00 0.00 0.00 0.00 0.00 0.00 0.00 0.00 0.00 0.00 0.00 0.00 0.00 0.00 0.00 0.01 0.08 0.05 0.00 0.00 0.00 0.00 0.00 0.00 0.00 0.00 0.00 0.00 0.00 0.00 0.00 0.00 0.00 0.00 0.00 0.00 0.00 0.00
0.00 0.00 0.00 0.00 0.00 0.00 0.00 0.00 0.00 0.00 0.00 0.00 0.00 0.00 0.00 0.00 0.00 0.00 0.00 0.00 0.00 0.00 0.00 0.02 0.00 0.00 0.01 0.00 0.00 0.00 0.00 0.00 0.00 0.00 0.00 0.00 0.00 0.00 0.00 0.00 0.00 0.00 0.00 0.00 0.00
0.00 0.00 0.00 0.00 0.00 0.00 0.00 0.00 0.00 0.00 0.00 0.00 0.00 0.00 0.00 0.00 0.00 0.00 0.00 0.00 0.00 0.00 0.00 0.00 0.00 0.00 0.00 0.00 0.00 0.00 0.00 0.00 0.00 0.00 0.00 0.00 0.00 0.00 0.00 0.00 0.00 0.00 0.00 0.00 0.00
0.00 0.00 0.00 0.00 0.00 0.00 0.00 0.00 0.00 0.00 0.00 0.00 0.00 0.00 0.00 0.00 0.00 0.00 0.00 0.00 0.00 0.00 0.00 0.00 0.00 0.00 0.00 0.00 0.00 0.00 0.00 0.00 0.00 0.00 0.00 0.00 0.00 0.00 0.00 0.00 0.00 0.00 0.00 0.00 0.00
0.00 0.00 0.00 0.00 0.00 0.00 0.00 0.00 0.00 0.00 0.00 0.00 0.00 0.00 0.00 0.00 0.00 0.00 0.00 0.00 0.00 0.00 0.00 0.00 0.00 0.00 0.00 0.00 0.00 0.00 0.00 0.00 0.00 0.00 0.00 0.01 0.00 0.00 0.00 0.00 0.00 0.00 0.00 0.00 0.00
0.00 0.00 0.00 0.00 0.00 0.00 0.00 0.00 0.00 0.00 0.00 0.00 0.00 0.00 0.00 0.00 0.00 0.00 0.00 0.00 0.00 0.00 0.00 0.00 0.00 0.00 0.00 0.00 0.00 0.00 0.00 0.00 0.00 0.00 0.00 0.01 0.00 0.00 0.00 0.00 0.00 0.00 0.00 0.00 0.00
0.00 0.00 0.00 0.00 0.00 0.00 0.00 0.00 0.00 0.00 0.00 0.00 0.00 0.00 0.00 0.00 0.00 0.00 0.00 0.00 0.00 0.00 0.00 0.00 0.00 0.00 0.00 0.00 0.00 0.00 0.00 0.00 0.00 0.00 0.00 0.00 0.00 0.00 0.00 0.00 0.00 0.00 0.00 0.00 0.00
0.00 0.00 0.00 0.00 0.00 0.00 0.00 0.00 0.00 0.00 0.00 0.00 0.00 0.00 0.00 0.00 0.00 0.00 0.00 0.00 0.00 0.00 0.00 0.00 0.00 0.00 0.00 0.00 0.00 0.00 0.00 0.00 0.00 0.00 0.00 0.00 0.01 0.00 0.00 0.00 0.00 0.00 0.00 0.00 0.00
0.00 0.00 0.00 0.00 0.00 0.00 0.00 0.00 0.00 0.00 0.00 0.00 0.00 0.00 0.00 0.00 0.00 0.00 0.00 0.00 0.00 0.00 0.00 0.00 0.00 0.00 0.00 0.00 0.00 0.00 0.00 0.00 0.00 0.00 0.00 0.00 0.01 0.01 0.00 0.00 0.00 0.00 0.00 0.00 0.00
0.00 0.00 0.00 0.00 0.00 0.00 0.00 0.00 0.00 0.00 0.00 0.00 0.00 0.00 0.00 0.00 0.00 0.00 0.00 0.00 0.00 0.00 0.00 0.00 0.00 0.00 0.00 0.00 0.00 0.00 0.00 0.00 0.00 0.00 0.00 0.00 0.00 0.00 0.00 0.00 0.00 0.00 0.00 0.00 0.00
0.00 0.00 0.00 0.00 0.00 0.00 0.00 0.00 0.00 0.00 0.00 0.00 0.00 0.00 0.00 0.00 0.00 0.00 0.00 0.00 0.00 0.00 0.00 0.00 0.00 0.00 0.00 0.00 0.00 0.00 0.00 0.00 0.00 0.00 0.00 0.00 0.00 0.00 0.00 0.00 0.00 0.00 0.00 0.00 0.00
0.00 0.00 0.00 0.00 0.00 0.00 0.00 0.00 0.00 0.00 0.00 0.00 0.00 0.00 0.00 0.00 0.00 0.00 0.00 0.00 0.00 0.00 0.00 0.00 0.00 0.00 0.00 0.00 0.00 0.00 0.00 0.00 0.00 0.00 0.00 0.00 0.00 0.00 0.00 0.00 0.00 0.00 0.00 0.00 0.00
0.00 0.00 0.00 0.00 0.00 0.00 0.00 0.00 0.00 0.00 0.00 0.00 0.00 0.00 0.00 0.00 0.00 0.00 0.00 0.00 0.00 0.00 0.00 0.00 0.00 0.00 0.00 0.00 0.00 0.00 0.00 0.00 0.00 0.00 0.00 0.00 0.00 0.00 0.00 0.00 0.00 0.00 0.00 0.00 0.00
0.00 0.00 0.00 0.00 0.00 0.00 0.00 0.00 0.00 0.00 0.00 0.00 0.00 0.00 0.00 0.00 0.00 0.00 0.00 0.00 0.00 0.00 0.00 0.00 0.00 0.00 0.00 0.00 0.00 0.00 0.00 0.00 0.00 0.00 0.00 0.00 0.00 0.00 0.00 0.00 0.00 0.00 0.00 0.00 0.00
0.00 0.00 0.00 0.00 0.00 0.00 0.00 0.00 0.00 0.00 0.00 0.00 0.00 0.00 0.00 0.00 0.00 0.00 0.00 0.00 0.00 0.00 0.00 0.00 0.00 0.00 0.00 0.00 0.00 0.00 0.00 0.00 0.00 0.00 0.00 0.00 0.00 0.00 0.00 0.00 0.00 0.00 0.00 0.00 0.00
0.00 0.00 0.00 0.00 0.00 0.00 0.00 0.00 0.00 0.00 0.00 0.00 0.00 0.00 0.00 0.00 0.00 0.00 0.00 0.00 0.00 0.00 0.00 0.00 0.00 0.00 0.00 0.00 0.00 0.00 0.00 0.00 0.00 0.00 0.00 0.00 0.00 0.00 0.00 0.00 0.00 0.00 0.00 0.00 0.00
0.00 0.00 0.00 0.00 0.00 0.00 0.00 0.00 0.00 0.00 0.00 0.00 0.00 0.00 0.00 0.00 0.00 0.00 0.00 0.00 0.00 0.00 0.00 0.00 0.00 0.00 0.00 0.00 0.00 0.00 0.00 0.00 0.00 0.00 0.00 0.00 0.00 0.00 0.00 0.00 0.00 0.00 0.00 0.00 0.00
0.00 0.00 0.00 0.00 0.00 0.00 0.00 0.00 0.00 0.00 0.00 0.00 0.00 0.00 0.00 0.00 0.00 0.00 0.00 0.00 0.00 0.00 0.00 0.00 0.00 0.00 0.00 0.00 0.00 0.00 0.00 0.00 0.00 0.00 0.00 0.00 0.00 0.00 0.00 0.00 0.00 0.00 0.00 0.00 0.00
0.00 0.00 0.00 0.00 0.00 0.00 0.00 0.00 0.00 0.00 0.00 0.00 0.00 0.00 0.00 0.00 0.00 0.00 0.00 0.00 0.00 0.00 0.00 0.00 0.00 0.00 0.00 0.00 0.00 0.00 0.00 0.00 0.00 0.00 0.00 0.00 0.00 0.00 0.00 0.00 0.00 0.00 0.00 0.00 0.00
0.00 0.00 0.00 0.00 0.00 0.00 0.00 0.00 0.00 0.00 0.00 0.00 0.00 0.00 0.00 0.00 0.00 0.00 0.00 0.00 0.00 0.00 0.00 0.00 0.00 0.00 0.00 0.00 0.00 0.00 0.00 0.00 0.00 0.00 0.00 0.00 0.00 0.00 0.00 0.00 0.00 0.00 0.00 0.00 0.00
0.00 0.00 0.00 0.00 0.00 0.00 0.00 0.00 0.00 0.00 0.00 0.00 0.00 0.00 0.00 0.00 0.00 0.00 0.00 0.00 0.00 0.00 0.00 0.00 0.00 0.00 0.00 0.00 0.00 0.00 0.00 0.00 0.00 0.00 0.00 0.00 0.00 0.00 0.00 0.00 0.00 0.00 0.00 0.00 0.00
0.00 0.00 0.00 0.00 0.00 0.00 0.00 0.00 0.00 0.00 0.00 0.00 0.00 0.00 0.00 0.00 0.00 0.00 0.00 0.00 0.00 0.00 0.00 0.00 0.00 0.00 0.00 0.00 0.00 0.00 0.00 0.00 0.00 0.00 0.00 0.00 0.00 0.00 0.00 0.00 0.00 0.00 0.00 0.00 0.00
0.00 0.00 0.00 0.00 0.00 0.00 0.00 0.00 0.00 0.00 0.00 0.00 0.00 0.00 0.00 0.00 0.00 0.00 0.00 0.00 0.00 0.00 0.00 0.00 0.00 0.00 0.00 0.00 0.00 0.00 0.00 0.00 0.00 0.00 0.00 0.00 0.00 0.00 0.00 0.00 0.00 0.00 0.00 0.00 0.00
MSLP
1017.38 1017.07 1016.72 1016.28 1015.75 1015.41 1015.06 1014.74 1014.49 1014.31 1014.26 1014.16 1013.96 1013.64 1013.07 1012.88 1011.84 1011.98 1010.24 1008.87 1008.77 1009.05 1009.23 1009.99 1009.87 1009.82 1009.90 1012.52 1012.16 1011.83 1011.06 1008.23 1006.95 1006.26 1005.94 1005.92 1006.16 1006.30 1006.58 1007.49 1008.55 1009.03 1010.27 1011.66 1012.23
1017.62 1017.06 1016.73 1016.40 1015.87 1015.35 1014.97 1014.67 1014.38 1014.11 1014.00 1013.93 1013.87 1013.52 1012.97 1012.76 1011.89 1010.35 1008.28 1008.15 1007.85 1008.30 1008.87 1009.48 1011.14 1011.01 1011.05 1011.47 1010.34 1010.56 1009.59 1006.73 1005.45 1005.29 1005.60 1005.88 1006.19 1006.36 1007.10 1007.95 1009.11 1009.85 1010.76 1011.69 1012.20
1017.83 1017.25 1016.69 1016.28 1015.88 1015.33 1014.84 1014.44 1014.14 1013.92 1013.73 1013.69 1013.67 1013.33 1012.83 1012.55 1011.36 1008.57 1007.84 1008.30 1007.54 1007.51 1007.74 1008.36 1010.85 1011.64 1011.81 1011.86 1009.02 1007.84 1006.88 1005.53 1005.00 1004.96 1005.19 1005.56 1005.84 1006.30 1007.34 1008.56 1009.39 1010.06 1010.72 1011.55 1011.82
1017.86 1017.37 1016.75 1016.15 1015.65 1015.29 1014.73 1014.25 1013.85 1013.55 1013.42 1013.46 1013.46 1013.08 1012.77 1012.34 1010.08 1007.85 1007.84 1008.02 1007.53 1008.68 1008.55 1008.63 1010.35 1011.39 1010.89 1009.75 1006.61 1005.92 1005.41 1005.05 1004.75 1004.64 1004.88 1005.25 1005.56 1006.33 1007.35 1008.55 1009.27 1010.16 1010.65 1010.87 1011.50
1017.80 1017.29 1016.79 1016.13 1015.48 1014.92 1014.53 1014.05 1013.60 1013.28 1013.01 1013.07 1013.23 1012.87 1012.56 1011.28 1008.33 1007.52 1008.20 1008.00 1008.33 1008.85 1009.59 1009.57 1010.81 1010.96 1010.03 1008.46 1005.86 1005.40 1005.07 1004.59 1004.31 1004.63 1004.89 1005.31 1006.09 1006.89 1007.85 1008.67 1009.37 1010.13 1010.51 1010.71 1011.15
1017.87 1017.20 1016.59 1016.09 1015.33 1014.66 1013.97 1013.59 1013.22 1012.88 1012.63 1012.67 1012.87 1012.84 1012.20 1009.43 1006.38 1006.99 1007.80 1008.25 1007.92 1008.88 1009.64 1010.08 1008.99 1007.70 1008.14 1006.52 1005.98 1005.85 1004.96 1004.73 1004.55 1004.90 1005.42 1006.05 1006.71 1007.17 1008.27 1008.72 1009.49 1010.08 1010.33 1010.43 1010.62
1017.84 1017.14 1016.46 1015.78 1015.19 1014.40 1013.73 1013.08 1012.69 1012.29 1012.12 1012.22 1012.39 1012.05 1010.43 1006.94 1005.47 1006.37 1006.99 1007.19 1006.98 1007.30 1008.29 1008.60 1007.50 1007.62 1006.17 1006.33 1005.62 1005.85 1006.01 1005.63 1005.29 1005.23 1006.16 1006.63 1007.36 1007.73 1008.17 1008.62 1009.43 1009.79 1010.03 1010.20 1010.40
1017.72 1017.07 1016.31 1015.59 1014.86 1014.12 1013.37 1012.62 1012.09 1011.73 1011.55 1011.64 1011.82 1011.20 1008.45 1004.55 1004.75 1005.42 1005.77 1005.68 1005.32 1005.01 1004.74 1005.11 1005.06 1005.24 1005.22 1005.24 1005.58 1006.45 1006.74 1006.94 1005.94 1005.85 1007.42 1006.90 1007.94 1008.03 1008.24 1008.66 1009.17 1009.38 1009.60 1010.08 1010.59
1017.53 1016.85 1016.18 1015.35 1014.60 1013.85 1012.85 1011.94 1011.24 1011.00 1011.04 1011.18 1011.18 1010.21 1006.60 1004.14 1004.14 1004.05 1004.23 1004.46 1003.87 1003.59 1003.28 1003.21 1003.46 1004.12 1005.21 1005.62 1006.61 1007.20 1007.04 1006.78 1006.84 1006.44 1007.00 1007.90 1008.06 1007.87 1008.06 1008.51 1008.87 1009.07 1009.47 1010.03 1010.57
1017.45 1016.58 1015.84 1015.06 1014.20 1013.61 1012.49 1011.08 1010.47 1010.51 1010.42 1010.24 1009.69 1008.97 1005.64 1003.76 1003.26 1003.26 1003.23 1003.55 1003.72 1003.40 1003.13 1002.71 1003.04 1003.85 1004.22 1005.00 1005.44 1005.79 1006.67 1006.15 1006.54 1006.54 1005.72 1007.56 1008.01 1007.80 1007.70 1008.04 1008.45 1008.79 1009.25 1009.84 1010.31
1017.44 1016.47 1015.56 1014.57 1013.82 1013.38 1012.30 1010.33 1010.54 1010.30 1009.36 1008.17 1006.99 1005.69 1003.74 1002.74 1002.53 1002.56 1002.63 1003.06 1003.40 1003.57 1003.55 1002.82 1003.05 1003.05 1003.18 1003.23 1002.66 1003.63 1004.53 1004.70 1004.91 1005.45 1005.84 1006.86 1007.58 1007.26 1007.04 1007.50 1007.99 1008.51 1008.85 1009.32 1009.81
1017.39 1016.46 1015.41 1014.19 1012.99 1012.90 1013.03 1011.01 1008.61 1007.94 1007.13 1006.13 1005.45 1004.89 1003.74 1002.96 1002.56 1001.73 1001.96 1002.86 1003.30 1003.64 1003.43 1003.19 1002.72 1001.93 1001.44 1001.35 1001.39 1001.41 1001.82 1003.18 1004.00 1004.32 1004.72 1006.58 1006.99 1006.65 1006.37 1006.47 1006.86 1007.56 1008.20 1008.65 1009.06
1017.29 1016.39 1015.43 1013.94 1012.29 1011.71 1011.04 1008.93 1007.38 1007.00 1006.72 1004.20 1003.38 1002.99 1002.56 1002.66 1002.12 1001.54 1001.65 1002.31 1002.95 1003.47 1003.45 1003.24 1002.17 1001.26 1000.77 1000.67 1000.79 1000.73 1000.97 1001.12 1002.42 1003.40 1003.20 1005.52 1006.51 1006.01 1005.55 1005.59 1005.84 1006.28 1006.70 1007.39 1007.98
1017.25 1016.36 1015.65 1014.28 1012.04 1011.10 1009.49 1007.62 1007.00 1006.88 1006.43 1002.94 1001.60 1001.03 1001.41 1001.70 1001.54 1001.38 1001.40 1002.27 1002.51 1002.89 1003.20 1002.77 1001.82 1001.43 1000.94 1000.39 1000.29 1000.34 1000.32 1000.48 1001.46 1002.52 1003.11 1003.61 1005.63 1005.49 1004.83 1004.72 1004.93 1005.13 1005.56 1006.07 1006.71
1017.09 1016.32 1015.54 1015.62 1013.92 1011.57 1008.98 1007.69 1007.26 1007.09 1005.94 1000.57 999.99 999.10 1000.05 1001.05 1001.49 1001.11 1001.26 1001.73 1002.29 1002.70 1002.88 1002.49 1002.11 1001.45 1000.86 1000.19 999.89 1000.26 1000.35 1000.65 1001.19 1001.93 1002.60 1002.98 1003.92 1003.96 1004.04 1004.09 1003.86 1003.80 1004.08 1004.58 1005.09
1016.75 1016.12 1015.73 1014.43 1013.43 1010.53 1009.11 1008.20 1007.68 1007.45 1004.63 1000.78 999.76 999.65 1000.40 1000.76 1001.06 1001.09 1001.26 1001.38 1001.49 1002.17 1002.26 1002.11 1001.65 1001.31 1000.66 999.98 999.92 999.79 1000.38 1000.91 1001.45 1001.98 1002.81 1002.37 1002.62 1002.93 1002.70 1002.13 1002.31 1002.40 1002.71 1003.21 1003.98
1016.14 1015.17 1015.78 1014.15 1011.74 1009.67 1009.14 1008.65 1008.38 1006.71 1003.29 1001.32 1000.42 1000.12 1000.34 1000.77 1000.91 1000.97 1001.28 1001.46 1001.90 1002.40 1002.54 1002.19 1001.59 1000.90 1000.32 1000.31 999.80 1000.00 1000.80 1001.90 1002.94 1003.20 1002.87 1001.44 1001.23 1000.36 1000.28 1000.52 1000.61 1001.02 1001.45 1002.01 1002.78
1015.39 1013.93 1012.68 1011.90 1010.24 1009.81 1009.65 1009.47 1008.23 1005.47 1003.61 1002.15 1001.59 1000.70 1000.64 1000.53 1000.73 1000.73 1001.18 1001.59 1001.30 1001.79 1001.88 1001.97 1001.56 1000.74 999.97 1000.00 1000.22 1000.37 1001.15 1002.04 1003.06 1003.47 1002.54 1000.98 1000.38 999.13 998.60 998.72 999.17 999.78 1000.23 1001.00 1001.85
1014.74 1012.56 1011.49 1010.00 1010.00 1009.89 1010.11 1009.55 1007.51 1005.65 1003.87 1003.89 1002.68 1001.98 1001.65 1001.16 1001.21 1001.09 1000.93 1001.05 1000.97 1001.01 1001.46 1001.19 1000.82 999.80 999.44 999.14 999.46 1000.09 1000.76 1001.20 1002.36 1002.39 1002.98 1001.54 999.84 998.86 998.22 998.41 998.26 999.11 999.69 1000.13 1000.92
1015.35 1012.77 1010.15 1008.77 1008.96 1009.52 1009.99 1009.23 1007.67 1006.35 1005.45 1004.58 1004.21 1003.57 1003.28 1002.67 1002.54 1002.54 1001.78 1000.41 1000.12 1000.04 1000.04 1000.46 1000.30 999.82 998.68 998.71 998.66 999.13 999.98 1000.98 1001.79 1002.73 1002.53 1001.24 1000.09 999.63 998.79 998.42 998.37 999.10 999.25 999.66 1000.14
1014.91 1012.13 1008.88 1008.50 1008.83 1009.55 1009.85 1008.79 1007.36 1006.01 1005.23 1004.92 1004.59 1004.33 1004.24 1003.86 1003.60 1003.26 1002.77 1001.42 999.87 999.90 999.58 999.82 1000.10 999.77 999.06 998.46 998.77 998.93 999.54 1000.32 1001.19 1001.99 1002.38 1001.47 999.95 997.60 998.35 998.34 998.51 999.13 999.10 999.47 999.99
1014.74 1011.60 1008.71 1008.48 1009.29 1009.23 1009.07 1007.93 1006.85 1006.00 1005.23 1005.04 1004.94 1005.21 1005.21 1004.96 1004.50 1003.89 1003.10 1002.30 1001.28 1001.12 1000.74 1000.19 999.74 999.75 998.94 998.24 997.80 998.11 998.68 999.30 1000.59 1001.21 1001.13 1000.64 999.28 996.85 997.24 997.45 997.65 998.21 998.81 998.98 999.47
1016.25 1012.03 1008.58 1008.50 1009.37 1009.20 1008.51 1007.73 1006.91 1006.23 1005.84 1005.87 1006.02 1006.11 1005.98 1005.96 1005.66 1004.53 1003.62 1002.46 1001.83 1001.47 1001.51 1001.26 1000.96 1000.79 999.55 998.69 997.76 997.59 997.70 998.39 998.94 999.67 1000.00 1000.21 998.95 997.18 996.71 996.97 997.18 997.72 998.46 998.82 999.38
1016.84 1012.89 1010.14 1009.82 1009.85 1010.51 1009.93 1008.66 1007.95 1007.16 1007.03 1006.86 1006.89 1006.73 1006.67 1006.43 1006.00 1005.17 1004.09 1003.02 1002.33 1001.81 1001.41 1001.60 1001.75 1001.60 1001.02 999.71 998.63 997.85 997.33 997.47 997.85 998.75 999.20 998.65 997.90 997.26 997.02 996.73 997.02 997.19 997.89 998.62 999.24
1016.51 1015.05 1014.50 1012.89 1012.01 1011.79 1011.04 1010.21 1009.27 1008.51 1007.88 1007.47 1007.38 1007.39 1007.19 1007.03 1006.58 1005.92 1005.03 1003.72 1002.66 1002.22 1001.92 1002.08 1002.04 1001.58 1000.63 999.89 998.85 998.12 997.42 997.05 997.24 996.86 997.93 997.53 997.34 996.17 995.77 995.72 996.11 996.60 997.28 998.37 999.09
1018.20 1017.86 1016.60 1015.46 1013.81 1012.86 1011.79 1010.74 1009.84 1008.95 1008.82 1008.26 1008.03 1007.68 1007.48 1007.35 1006.95 1006.76 1006.12 1005.38 1004.53 1003.03 1002.78 1002.55 1002.60 1002.14 1001.44 1000.27 999.30 998.47 997.43 996.97 996.65 996.02 996.26 996.34 995.97 995.21 995.67 995.52 995.74 996.42 996.93 997.41 998.48
1020.23 1019.39 1018.16 1016.48 1015.01 1013.91 1012.73 1011.97 1011.16 1010.49 1009.83 1009.43 1009.07 1008.70 1008.29 1007.71 1007.21 1006.89 1006.51 1005.89 1005.13 1004.43 1003.85 1003.75 1003.44 1003.34 1002.44 1001.44 1000.23 998.63 996.89 996.48 996.07 995.18 994.96 994.99 994.65 994.21 994.29 995.29 995.09 995.36 996.35 997.17 997.88
Thickness
5791 5793 5795 5799 5803 5805 5808 5810 5812 5814 5814 5814 5815 5817 5822 5823 5831 5829 5836 5851 5855 5852 5847 5836 5834 5830 5825 5796 5804 5801 5771 5794 5804 5805 5811 5832 5820 5835 5839 5820 5818 5818 5806 5800 5800
5790 5795 5797 5799 5804 5808 5810 5813 5816 5818 5819 5819 5819 5821 5825 5827 5832 5837 5863 5865 5869 5861 5851 5836 5813 5821 5807 5805 5818 5793 5776 5812 5838 5834 5823 5830 5827 5829 5821 5814 5806 5807 5811 5806 5802
5788 5793 5799 5802 5805 5810 5813 5816 5819 5822 5823 5823 5824 5826 5829 5831 5833 5852 5871 5866 5876 5874 5871 5859 5828 5813 5795 5795 5821 5827 5816 5842 5843 5846 5844 5834 5833 5840 5818 5800 5806 5800 5804 5806 5805
5788 5792 5798 5804 5808 5811 5816 5819 5823 5826 5827 5827 5827 5830 5832 5834 5819 5863 5870 5869 5877 5863 5862 5855 5831 5810 5803 5810 5854 5842 5855 5854 5852 5854 5847 5836 5846 5833 5827 5816 5824 5818 5817 5816 5811
5788 5792 5797 5802 5809 5814 5818 5822 5825 5829 5831 5831 5830 5834 5836 5833 5846 5873 5868 5873 5871 5864 5847 5838 5822 5809 5805 5820 5861 5848 5854 5862 5863 5858 5853 5852 5835 5830 5824 5830 5831 5825 5823 5819 5817
5786 5792 5797 5802 5808 5815 5821 5825 5829 5832 5835 5834 5832 5834 5836 5825 5886 5880 5873 5871 5872 5858 5846 5831 5840 5850 5830 5849 5849 5850 5859 5860 5864 5855 5852 5839 5833 5835 5827 5835 5828 5825 5822 5825 5826
5782 5790 5796 5803 5808 5815 5821 5827 5832 5836 5837 5837 5836 5840 5840 5849 5896 5889 5883 5877 5882 5876 5846 5841 5859 5846 5861 5851 5872 5854 5833 5845 5854 5857 5841 5843 5818 5819 5835 5836 5825 5825 5827 5831 5830
5778 5786 5794 5802 5808 5816 5823 5830 5835 5839 5840 5839 5839 5842 5837 5903 5903 5895 5896 5892 5901 5902 5895 5896 5897 5879 5871 5877 5866 5837 5835 5804 5847 5854 5836 5840 5796 5827 5839 5832 5824 5828 5831 5829 5828
5774 5782 5790 5799 5807 5815 5824 5833 5840 5842 5842 5841 5841 5842 5844 5908 5890 5905 5907 5890 5904 5908 5912 5917 5905 5879 5868 5846 5825 5818 5797 5817 5827 5856 5842 5825 5813 5835 5843 5834 5828 5830 5831 5828 5826
5769 5778 5787 5797 5806 5813 5824 5836 5842 5843 5844 5846 5850 5834 5868 5869 5895 5903 5913 5906 5892 5897 5891 5888 5880 5855 5852 5836 5800 5815 5811 5827 5822 5843 5861 5825 5818 5835 5844 5839 5833 5832 5831 5830 5828
5762 5773 5784 5795 5805 5811 5821 5837 5830 5826 5839 5837 5846 5855 5875 5897 5909 5897 5908 5896 5891 5879 5852 5878 5852 5833 5856 5865 5875 5858 5844 5839 5855 5860 5843 5828 5825 5835 5846 5843 5836 5833 5833 5831 5832
5755 5766 5779 5793 5806 5809 5810 5821 5836 5843 5822 5856 5859 5864 5881 5892 5869 5891 5911 5872 5866 5844 5864 5855 5836 5875 5899 5900 5889 5885 5878 5862 5857 5869 5860 5828 5822 5842 5852 5849 5848 5843 5839 5838 5839
5749 5760 5773 5789 5806 5814 5820 5832 5856 5857 5818 5850 5870 5870 5876 5881 5868 5876 5893 5878 5859 5846 5851 5836 5858 5894 5891 5892 5879 5880 5877 5883 5866 5875 5889 5842 5823 5839 5858 5862 5862 5861 5860 5854 5849
5746 5755 5765 5782 5801 5812 5817 5847 5855 5855 5791 5832 5856 5875 5881 5881 5862 5896 5899 5877 5861 5843 5853 5851 5874 5872 5873 5875 5890 5852 5897 5897 5886 5861 5830 5871 5794 5833 5855 5860 5863 5866 5864 5862 5860
5745 5752 5762 5765 5781 5795 5822 5842 5849 5836 5747 5865 5869 5914 5892 5868 5867 5875 5900 5877 5848 5847 5853 5846 5856 5859 5860 5875 5899 5869 5898 5886 5885 5869 5860 5861 5822 5836 5861 5853 5862 5873 5876 5876 5875
5749 5752 5757 5770 5780 5807 5822 5832 5828 5774 5760 5844 5870 5864 5858 5864 5863 5875 5871 5884 5881 5854 5858 5857 5885 5872 5871 5891 5896 5905 5884 5881 5876 5863 5818 5856 5844 5830 5852 5869 5876 5886 5889 5889 5885
5756 5762 5757 5769 5782 5809 5816 5806 5762 5752 5836 5839 5844 5858 5851 5845 5851 5855 5848 5843 5830 5811 5815 5843 5854 5879 5888 5864 5887 5888 5863 5802 5798 5800 5805 5870 5851 5850 5890 5895 5895 5894 5894 5898 5897
5764 5774 5782 5786 5799 5804 5799 5769 5744 5798 5811 5843 5837 5847 5840 5855 5848 5852 5841 5827 5852 5842 5823 5807 5804 5858 5888 5870 5857 5863 5854 5804 5786 5799 5829 5878 5849 5870 5914 5920 5919 5915 5911 5907 5902
5768 5786 5789 5800 5800 5800 5771 5738 5762 5793 5818 5806 5819 5815 5819 5844 5846 5845 5837 5836 5848 5855 5818 5813 5818 5875 5882 5895 5884 5861 5840 5869 5832 5848 5822 5844 5879 5900 5913 5911 5919 5915 5913 5912 5908
5760 5775 5789 5808 5806 5790 5755 5744 5769 5796 5805 5806 5781 5802 5788 5809 5811 5813 5819 5853 5854 5869 5872 5842 5812 5860 5882 5891 5892 5873 5887 5831 5828 5799 5795 5834 5855 5843 5880 5894 5910 5907 5908 5913 5916
5761 5768 5799 5808 5802 5769 5739 5754 5777 5803 5806 5791 5784 5784 5790 5795 5805 5804 5808 5838 5867 5867 5872 5859 5837 5837 5866 5858 5851 5859 5851 5858 5851 5829 5794 5796 5835 5909 5889 5897 5901 5904 5911 5914 5915
5756 5753 5799 5803 5754 5758 5749 5771 5786 5791 5804 5794 5791 5785 5782 5790 5790 5795 5800 5816 5847 5845 5828 5849 5839 5817 5835 5875 5893 5882 5864 5863 5828 5814 5829 5825 5831 5919 5919 5917 5917 5912 5911 5917 5924
5733 5755 5798 5790 5736 5747 5766 5773 5782 5779 5781 5776 5771 5779 5783 5771 5761 5785 5799 5828 5836 5833 5820 5833 5805 5777 5811 5847 5871 5861 5874 5872 5871 5861 5836 5810 5829 5914 5920 5916 5919 5915 5910 5912 5915
5726 5738 5762 5765 5762 5741 5739 5749 5751 5773 5768 5771 5764 5769 5764 5758 5771 5768 5785 5814 5828 5829 5832 5826 5805 5793 5776 5810 5849 5844 5863 5874 5866 5826 5831 5841 5858 5891 5904 5904 5912 5914 5913 5909 5912
5726 5720 5721 5715 5725 5727 5733 5734 5735 5736 5754 5759 5750 5752 5749 5737 5746 5751 5772 5790 5812 5820 5820 5808 5780 5798 5816 5828 5838 5841 5850 5864 5852 5865 5838 5862 5859 5889 5906 5912 5914 5918 5914 5908 5906
5696 5690 5699 5698 5715 5714 5720 5722 5728 5738 5735 5735 5733 5743 5742 5730 5737 5730 5744 5752 5759 5793 5795 5805 5772 5790 5785 5817 5826 5821 5840 5850 5860 5871 5868 5872 5866 5906 5916 5917 5908 5913 5914 5908 5907
5679 5681 5682 5687 5696 5699 5704 5707 5713 5720 5728 5730 5727 5721 5719 5729 5740 5744 5748 5755 5762 5762 5766 5769 5768 5760 5754 5788 5796 5791 5832 5843 5851 5872 5878 5854 5883 5910 5907 5908 5912 5911 5911 5907 5908